Weather Roundup
Issued by NWS Springfield, MO

Home | Current Version | Previous Version | Text Only | Print | Product List | Glossary On
Versions: 1 2 3 4 5 6 7 8 9 10 11 12 13 14 15 16 17 18 19 20 21 22 23 24 25 26 27 28 29 30 31 32 33 34 35 36 37 38 39 40 41 42 43 44 45 46 47 48 49 50
000
NZUS99 KSGF 270207
HRRSGF

HOURLY WEATHER
NATIONAL WEATHER SERVICE SPRINGFIELD MO
900 PM CDT THU MAY 26 2016

......SGF CWA......

CITY           SKY/WX    TMP DP  RH WIND       PRES   REMARKS
SPRINGFIELD    LGT RAIN  69  59  70 SE8       29.81F
JOPLIN         CLEAR     71  59  65 SE9       29.78F
WEST PLAINS    CLOUDY    73  64  73 S12       29.89F
ROLLA          CLOUDY    75  70  84 S13       29.84F
BRANSON        MOCLDY    66  64  94 SE8       29.86F

......SURROUNDING SGF CWA......

CITY           SKY/WX    TMP DP  RH WIND       PRES   REMARKS
CHANUTE        CLEAR     75  66  73 S9        29.76S
PARSONS        CLEAR     75  68  78 S12G18    29.78R
COFFEYVILLE    CLEAR     74  68  81 S13       29.75S
EMPORIA        TSTM      61  60  97 N22G31    29.82S
GROVE OK       CLEAR     72  63  73 S6        29.80S
ROGERS AR        N/A     64  62  93 SE12      29.83F
SILOAM SPRINGS PTCLDY    66  55  68 SE9       29.81F
HARRISON AR    CLOUDY    66  63  90 S9        29.87S
NEAR YELLVILLE CLOUDY   N/A N/A N/A SE9G16    29.83F

......KANSAS AND MISSOURI......

CITY           SKY/WX    TMP DP  RH WIND       PRES   REMARKS
KANSAS CTY INT TSTM      63  60  90 N8        29.87R
DOWNTOWN KC    LGT RAIN  65  60  84 VRB6      29.89R
COLUMBIA       LGT RAIN  65  63  93 N18       29.89R
SEDALIA        RAIN      66  64  93 MISG      29.91R FOG
ST JOSEPH      LGT RAIN  63  60  90 NW12      29.90R
ST LOUIS       CLOUDY    77  66  68 S13G20    29.89R
SPIRIT OF STL  CLOUDY    74  68  81 VRB5      29.86S
KIRKSVILLE     HVY RAIN  66  62  87 CALM      30.01R FOG
WICHITA        MOCLDY    78  65  63 SE18G29   29.69R
TOPEKA         TSTM      63  60  90 NE14      29.86F
OLATHE         RAIN      62  60  93 E14       29.86R FOG

......TENNESSEE......

CITY           SKY/WX    TMP DP  RH WIND       PRES   REMARKS
MEMPHIS        CLOUDY    73  66  78 E18       29.96R THUNDER
NASHVILLE      CLOUDY    70  65  84 E6        30.06S

......ARKANSAS.......

CITY           SKY/WX    TMP DP  RH WIND       PRES   REMARKS
FAYETTEVILLE   CLOUDY    63  63 100 CALM      29.85S
FT SMITH       CLOUDY    74  66  76 SE7       29.82S
LITTLE ROCK    CLOUDY    72  68  87 E5        29.90F

......OKLAHOMA.......

CITY           SKY/WX    TMP DP  RH WIND       PRES   REMARKS
TULSA          PTCLDY    78  66  66 S14       29.72F
PONCA CITY     CLEAR     78  63  59 S20G31    29.68S
MCALESTER      CLEAR     75  65  70 SE9G23    29.78F
OKLAHOMA CITY  CLOUDY    74  62  66 S21G31    29.68F

......IOWA............

CITY           SKY/WX    TMP DP  RH WIND       PRES   REMARKS
DES MOINES     LGT RAIN  64  59  83 N9        29.94F
QUAD CITIES    CLOUDY    78  63  59 SW7       29.86R

......ILLINOIS........

CITY           SKY/WX    TMP DP  RH WIND       PRES   REMARKS
QUINCY         CLOUDY    76  70  82 SE7       29.86F
CHICAGO        CLOUDY    73  65  75 S5        29.88R




USA.gov is the U.S. government's official web portal to all federal, state and local government web resources and services.